Hourly Data Report for March 14, 2004

TORONTO CITY
ONTARIO

43°40'00.000" N
79°24'00.000" W
112.50 m
6158355
71508
XTO

Download Data

Hourly Data (March 2004)
Hourly Data Report for March 14, 2004
TIME
LST
Temp Definition
°C
Dew Point Definition
°C
Rel Hum Definition
%
Precip. Amount Definition
mm

Wind Dir Definition
10's deg

Wind Spd Definition
km/h
Visibility Definition
km
Stn Press Definition
kPa
Hmdx Definition


Wind Chill Definition


Weather Definition


00:00 -1.4 -5.0 76   LegendMM LegendMM LegendMM 101.70     LegendNANA
01:00 -0.9 -5.0 74   LegendMM LegendMM LegendMM 101.58     LegendNANA
02:00 -0.7 -5.8 68   LegendMM LegendMM LegendMM 101.57     LegendNANA
03:00 -0.7 -5.2 72   LegendMM LegendMM LegendMM 101.43     LegendNANA
04:00 -0.4 -5.9 66   LegendMM LegendMM LegendMM 101.35     LegendNANA
05:00 -0.1 -6.2 63   LegendMM LegendMM LegendMM 101.24     LegendNANA
06:00 -0.2 -6.9 61   LegendMM LegendMM LegendMM 101.12     LegendNANA
07:00 0.1 -6.2 63   LegendMM LegendMM LegendMM 101.04     LegendNANA
08:00 0.1 -5.0 69   LegendMM LegendMM LegendMM 100.90     LegendNANA
09:00 0.6 -5.7 63   LegendMM LegendMM LegendMM 100.77     LegendNANA
10:00 1.5 -5.5 60   LegendMM LegendMM LegendMM 100.62     LegendNANA
11:00 1.5 -6.2 57   LegendMM LegendMM LegendMM 100.50     LegendNANA
12:00 2.4 -5.3 57   LegendMM LegendMM LegendMM 100.31     LegendNANA
13:00 2.2 -3.2 67   LegendMM LegendMM LegendMM 100.17     LegendNANA
14:00 1.7 0.8 94   LegendMM LegendMM LegendMM 99.96     LegendNANA
15:00 2.9 2.2 95   LegendMM LegendMM LegendMM 99.86     LegendNANA
16:00 3.6 2.6 93   LegendMM LegendMM LegendMM 99.79     LegendNANA
17:00 3.7 2.7 93   LegendMM LegendMM LegendMM 99.78     LegendNANA
18:00 4.6 3.0 89   LegendMM LegendMM LegendMM 99.78     LegendNANA
19:00 4.4 2.9 90   LegendMM LegendMM LegendMM 99.75     LegendNANA
20:00 4.8 2.7 86   LegendMM LegendMM LegendMM 99.71     LegendNANA
21:00 3.2 1.1 86   LegendMM LegendMM LegendMM 99.82     LegendNANA
22:00 2.1 -2.9 69   LegendMM LegendMM LegendMM 99.96     LegendNANA
23:00 2.0 -3.4 67   LegendMM LegendMM LegendMM 100.00     LegendNANA

Notes on Data Quality.

Legend

  • E = Estimated
  • M = Missing
  • NA = Not Available*
  • [empty] = Indicates an unobserved value
Date modified: